Location: Cz?stochówka
(50.8142°N, 19.0915°E)
Time: 20:39:52
(UTC+00:00)

CBERS-1 - Pass Details

Date: 13 January 2026
Orbit: 765 x 772 km, 98.9° (Epoch: 13 February)

Event Time Altitude Azimuth Distance (km) Brightness Sun altitude
Rises 04:46:13 0° 17° (NNE) 3,246 7.3 -17.4°
Reaches altitude 10° 04:48:33 10° 20° (NNE) 2,315 6.6 -17.1°
Maximum altitude 04:53:38 67° 103° (ESE) 830 4.4 -16.3°
Drops below altitude 10° 04:58:40 10° 186° (S) 2,299 6.6 -15.5°
Sets 05:00:59 0° 189° (S) 3,222 7.3 -15.1°
